Find Starlink 3635

NORAD ID: 51981 Int'l Des: 2022-025 Owner: SPXS Country: US Constellation: starlink operational
LEOCIRCULAR

Live Position

Loading 3D Globe...

About Starlink 3635

Description loading...

Upcoming Passes

Passes for default location (London). Set your location on the main map for personalized predictions.

Altitude History

Loading altitude history...

Two-Line Element Set

1 51981U 22025AB 26124.78691764 -.00000145 00000-0 89546-5 0 9996
2 51981 53.2166 147.2906 0001540 80.9995 279.1171 15.08833281229525
Epoch: May 4, 2026 • Age: 16 hours

Current Status

Altitude 545.3 km
Velocity 7.60 km/s
Sub-Earth Point 53.16°N, 163.55°W
Launch Date Mar 9, 2022
Age 4.1 years
Type internet

Technical Details

Classification Payload
Mass 297.00 kg
Dry Mass 275.00 kg
Total Mass 297.00 kg
Length 0.20 m
Diameter 2.80 m
Span 9.00 m
Shape Box + pan
Manufacturer SPXS
Bus Type Starlink
Phase Status In Orbit
Owner/State SPXS/US

Most Searched